Location: Decatur Area Astronomy Club
(40.0275°N, 88.7810°W)
Time: 22:34:36
(UTC-06:00)

Daily predictions for brighter satellites

Satellite Brightness Start Highest point End
(mag) Time Altitude Azimuth Time Altitude Azimuth Time Altitude Azimuth
SL-16 R/B 2.2 17:58:01 10° NNW 18:03:44 85° ENE 18:09:24 10° SSE
Okean 2 Rocket 3.5 18:00:29 10° SSW 18:04:56 69° W 18:09:21 10° N
FREGAT/IRIS 3.9 18:02:54 10° SE 18:05:23 23° ENE 18:07:54 10° NNE
Cosmos 1340 3.6 18:03:22 10° NNE 18:06:41 28° ENE 18:09:58 10° SE
Cosmos 1709 Rocket 4.2 18:06:40 10° SSE 18:12:38 50° E 18:18:33 10° NNE
Cosmos 1484 Rocket 4.0 18:11:02 10° S 18:14:53 49° W 18:18:43 10° NNW
Meteor 1-18 Rocket 4.4 18:12:01 10° NNW 18:17:36 80° W 18:23:13 10° S
Cosmos 1954 Rocket 4.1 18:14:47 10° S 18:19:50 57° ESE 18:24:58 10° NNE
Cosmos 2322 Rocket 2.6 18:14:33 10° NNW 18:20:08 69° WSW 18:25:42 10° SSE
Meteor 1-28 Rocket 3.4 18:16:51 10° N 18:20:40 76° WNW 18:24:27 10° SSW
Tiangong 2 2.0 18:20:01 10° W 18:22:59 43° SSW 18:25:55 10° SE
SJ-6B 3.1 18:20:01 10° SSE 18:23:51 46° ENE 18:27:38 10° N
Cosmos 2151 Rocket 3.6 18:19:33 10° S 18:24:03 88° ESE 18:28:36 10° N
Okean 1 Rocket 3.8 18:21:08 10° SSE 18:25:05 32° E 18:29:04 10° NNE
TSX-5 3.1 18:24:24 10° SSW 18:27:35 86° ESE 18:30:50 10° NNE
FENGYUN 3A 4.1 18:22:44 10° SE 18:27:44 40° ENE 18:32:46 10° N
Gbstr 26 Del rocket 2.8 18:30:04 10° SW 18:33:52 56° SE 18:36:52 15° ENE
Cosmos 2322 3.8 18:30:48 10° NNW 18:36:27 55° ENE 18:42:01 10° SE
Cosmos 1238 Rocket 2.2 18:35:01 10° N 18:37:54 48° E 18:40:48 10° SSE
NOAA 12 4.2 18:33:28 10° SSE 18:38:47 85° WSW 18:44:09 10° NNW
GPS 2-04 Rocket1 4.2 18:40:37 10° SW 18:44:14 27° SSE 18:46:29 17° ESE
CZ-2D R/B 4.3 18:43:32 18° ESE 18:45:12 25° ENE 18:48:21 10° NNE
Cosmos 1025 Rocket 3.9 18:41:39 10° NNE 18:45:26 28° ENE 18:48:41 13° SE
Meteor 1-13 Rocket 4.1 18:40:06 10° N 18:45:40 75° E 18:51:19 10° SSE
GEOS 3 Rocket 3.8 18:41:08 10° NE 18:46:17 55° ESE 18:51:28 10° SSW
METEOR-M 4.5 18:44:25 10° S 18:49:44 70° WSW 18:55:05 10° NNW
H-2A R/B 3.2 18:46:58 10° SE 18:50:24 37° ENE 18:53:53 10° N
Cosmos 1536 3.0 18:46:51 10° SSE 18:50:41 47° E 18:54:32 10° NNE
COSMOS 2428 3.2 18:46:24 10° N 18:51:43 39° ENE 18:55:38 17° ESE
Okean 1-7 Rocket 3.9 18:47:24 10° N 18:51:45 44° ENE 18:56:01 10° SSE
Cosmos 2237 4.4 18:46:29 10° NNW 18:52:03 50° ENE 18:57:28 11° SE
SL-19 R/B 4.4 18:47:30 10° SSE 18:53:01 59° ENE 18:58:56 10° N
Meteor 2-4 Rocket 3.7 18:49:17 10° N 18:54:43 54° ENE 19:00:00 10° SSE
Cosmos 1633 2.9 18:51:27 10° SSW 18:55:06 68° W 18:58:48 10° N
Cosmos 2237 Rocket 3.8 18:51:57 10° NNE 18:55:21 16° NE 18:55:53 16° NE
Cosmos 1023 Rocket 4.4 18:51:03 10° SSW 18:56:09 86° WNW 19:01:19 10° NNE
Cosmos 1741 Rocket 3.9 18:58:09 10° S 19:03:20 66° ESE 19:08:31 10° NNE
Cosmos 2360 Rocket 2.5 19:05:20 10° NNW 19:10:58 69° WSW 19:16:34 10° SSE
Cosmos 2219 3.2 19:05:59 10° S 19:11:39 65° ESE 19:17:21 10° NNE
Cosmos 2219 Rocket 2.9 19:07:41 10° N 19:12:41 32° ENE 19:13:35 31° ENE
Cosmos 1570 Rocket 3.9 19:14:23 10° NNW 19:19:37 82° ENE 19:24:15 13° SSE
Meteor 1-11 Rocket 4.3 19:15:33 10° SSW 19:21:16 62° WNW 19:27:08 10° N
BREEZE-M DEB (TANK) 2.2 19:20:14 10° SW 19:23:46 73° SW 19:23:46 73° SW
Resurs 01 Rocket 1.9 19:21:41 10° S 19:26:04 68° W 19:30:28 10° NNW
SL-16 R/B 4.2 19:26:07 10° NNE 19:27:20 12° NNE 19:27:20 12° NNE
DELTA 2 R/B (1) 4.3 19:23:49 10° W 19:29:08 45° SSW 19:31:31 29° SSE
Abrixas rocket 2.9 19:27:05 10° SW 19:29:39 47° SSW 19:29:39 47° SSW
ATLAS CENTAUR R/B 3.2 19:28:18 10° SSW 19:30:46 23° S 19:30:46 23° S
Spot 1 3.7 19:31:44 66° SE 19:32:13 77° ENE 19:36:21 10° N
BREEZE-M DEB (TANK) 3.8 19:28:58 10° NW 19:32:27 65° NNE 19:35:01 38° E
Cosmos 1610 Rocket 4.4 19:26:22 10° S 19:32:30 63° E 19:38:35 10° NNE
ALOS 3.5 19:30:40 10° S 19:35:04 42° W 19:39:31 10° NNW
Cosmos 2327 Rocket 4.5 19:32:12 10° S 19:38:25 85° W 19:44:47 10° N
Cosmos 468 Rocket 4.4 19:35:05 10° N 19:39:26 44° NE 19:39:26 44° NE
Spot 2 Rocket 4.2 19:36:05 10° S 19:41:00 54° W 19:46:00 10° NNW
Helios 1A 2.8 19:40:56 78° S 19:41:12 87° WSW 19:45:23 10° NNW
Resurs 1-3 4.4 19:39:33 10° S 19:43:48 51° W 19:48:06 10° NNW
Cosmos 2208 Rocket 4.5 19:41:15 10° NNW 19:46:38 63° WSW 19:50:30 19° S
Cosmos 2333 Rocket 2.5 19:41:04 10° NNW 19:46:14 48° NE 19:46:14 48° NE
USA 229 DEB 3.7 19:45:12 10° NNW 19:52:23 81° NE 19:54:33 50° SE
USA 229 3.7 19:45:18 10° NNW 19:52:29 80° NE 19:54:36 50° SE
Cosmos 1980 4.4 19:48:59 10° NNW 19:53:09 39° NNE 19:53:09 39° NNE
Helios 1B rocket 2.8 19:50:20 10° N 19:54:33 63° W 19:58:32 10° SSW
Envisat 3.5 19:58:42 46° N 19:58:42 46° N 20:02:21 10° N
Okean 2 4.2 19:55:01 10° NNW 19:58:14 48° NW 19:58:14 48° NW
BREEZE-M DEB (TANK) 3.6 20:14:29 10° WNW 20:17:19 51° SW 20:17:19 51° SW
Nadezhda 3 Rocket 4.0 20:15:20 10° N 20:21:26 78° W 20:21:26 78° W
NOSS 3-1 (C) 4.1 20:17:12 10° NNW 20:24:22 62° NE 20:24:22 62° NE
Cosmos 2154 Rocket 4.4 20:23:39 10° SSW 20:29:56 63° W 20:36:14 10° N
COSMOS 2428 4.4 20:30:59 10° NW 20:35:48 29° WSW 20:37:45 23° SW
Cosmos 2237 Rocket 3.4 20:34:25 10° NNW 20:37:44 36° NNW 20:37:44 36° NNW
Cosmos 2219 Rocket 3.7 20:51:34 10° NW 20:55:22 31° WNW 20:55:22 31° WNW
